#timestamp,LO_Frequency,Hit,StdDev 
1551240015.9,286047003.9,N
1551240035.7,286046999.7,N
1551240055.6,286047000.3,N
1551240075.4,286047000.8,N
1551240095.2,286046999.7,N
1551240115.1,286047001.9,N
1551240116.0,286047001.9,N
1551240135.8,286047002.7,N
1551240155.7,286047002.3,N
1551240175.5,286047001.3,N
1551240195.3,286047002.0,N
1551240215.2,286047002.3,N
1551240235.0,286047002.0,N
1551240235.9,286047002.0,N
1551240255.8,286047002.6,N
1551240275.6,286047001.0,N
1551240295.4,286046998.3,N
1551240315.3,286046998.2,N
1551240335.1,286047002.6,N
1551240355.8,286047002.5,N
1551240375.7,286047002.3,N
1551240395.5,286047004.3,N
1551240415.4,286047002.6,N
1551240435.2,286047000.1,N
1551240455.0,286047001.0,N
1551240455.9,286047001.0,N
1551240475.8,286047000.5,N
1551240495.6,286047000.4,N
1551240515.5,286046998.2,N
1551240535.3,286046998.1,N
1551240555.1,286047001.0,N
1551240575.9,286046998.5,N
1551240595.7,286047001.2,N
1551240615.5,286047000.6,N
1551240635.4,286046999.9,N
1551240655.2,286046998.1,N
1551240675.1,286047000.9,N
1551240676.0,286047000.9,N
1551240695.8,286046999.5,N
1551240715.6,286046996.5,N
1551240735.5,286046997.6,N
1551240755.3,286046996.5,N
1551240775.2,286046999.6,N
1551240795.9,286046999.5,N
1551240815.7,286046998.7,N
1551240835.6,286046999.4,N
1551240855.4,286046998.8,N
1551240875.2,286047000.7,N
1551240895.1,286046997.0,N
1551240896.0,286046997.0,N
1551240915.8,286046997.4,N
1551240935.7,286046996.6,N
1551240955.5,286046999.2,N
1551240975.3,286046997.7,N
1551240995.2,286046999.4,N
1551241015.0,286046999.1,N
1551241015.9,286046999.1,N
1551241035.8,286046999.1,N
1551241055.6,286046998.1,N
1551241075.4,286046998.6,N
1551241095.3,286046998.8,N
1551241115.1,286046999.5,N
1551241135.8,286046997.6,N
1551241155.7,286046996.9,N
1551241175.5,286046997.3,N
1551241195.4,286046998.2,N
1551241215.2,286047000.6,N
1551241235.0,286047000.7,N
1551241235.9,286047000.7,N
1551241255.8,286046999.7,N
1551241275.6,286047001.1,N
1551241295.4,286047000.6,N
1551241315.3,286046999.3,N
1551241335.1,286046996.8,N
1551241355.9,286046999.1,N
1551241375.7,286046996.9,N
1551241395.5,286046999.1,N
1551241415.4,286046999.5,N
1551241435.2,286046996.8,N
1551241455.1,286046996.5,N
1551241456.0,286046996.5,N
1551241475.8,286046998.5,N
1551241495.6,286047000.8,N
1551241515.5,286046999.9,N
1551241535.3,286047001.2,N
1551241555.1,286047000.3,N
1551241575.9,286047000.3,N
1551241595.7,286046998.4,N
1551241615.6,286046998.2,N
1551241635.4,286046996.6,N
1551241655.2,286046997.4,N
1551241675.1,286046997.1,N
1551241676.0,286046997.1,N
1551241695.8,286046996.7,N
1551241715.6,286046998.6,N
1551241735.5,286046999.8,N
1551241755.3,286047002.5,N
1551241775.2,286046999.8,N
1551241795.9,286047002.1,N
1551241815.7,286047001.5,N
1551241835.6,286046999.7,N
1551241855.4,286047002.4,N
1551241875.3,286047000.0,N
1551241895.1,286047000.0,N
1551241896.0,286047000.0,N
1551241915.8,286047000.5,N
1551241935.7,286046999.1,N
1551241955.5,286046999.8,N
1551241975.3,286046998.5,N
1551241995.2,286047000.8,N
1551242015.0,286047000.9,N
1551242015.9,286047000.9,N
1551242035.8,286047000.6,N
1551242055.6,286046998.2,N
1551242075.4,286047000.9,N
1551242095.3,286046999.9,N
1551242115.1,286047000.7,N
1551242135.9,286047000.5,N
1551242155.7,286046998.2,N
1551242175.5,286047000.4,N
1551242195.4,286046998.1,N
1551242215.2,286046998.3,N
1551242235.0,286046999.5,N
1551242236.0,286046999.5,N
1551242255.8,286046999.1,N
1551242275.6,286046998.7,N
1551242295.5,286047001.2,N
1551242315.3,286047002.8,N
1551242335.1,286047004.4,Y
1551242355.9,286047003.5,P
1551242375.7,286047001.3,N
1551242395.6,286047001.9,N
1551242415.4,286047000.2,N
1551242435.2,286047000.3,N
1551242455.1,286047000.0,N
1551242456.0,286047000.0,N
1551242475.8,286046998.6,N
1551242495.6,286046998.6,N
1551242515.5,286046998.6,N
1551242535.3,286046999.3,N
1551242555.2,286046997.1,N
1551242575.9,286046998.3,N
1551242595.7,286047001.2,N
1551242615.6,286046999.8,N
1551242635.4,286047000.3,N
1551242655.2,286047000.8,N
1551242675.1,286047002.7,N
1551242676.0,286047002.7,N
1551242695.8,286047001.7,N
1551242715.7,286047004.1,N
1551242735.5,286047002.4,N
1551242755.3,286047002.3,N
1551242775.2,286047000.3,N
1551242795.0,286046998.6,N
1551242795.9,286046998.6,N
1551242815.8,286047001.2,N
1551242835.6,286046999.3,N
1551242855.4,286046997.2,N
1551242875.3,286046998.3,N
1551242895.1,286047000.2,N
1551242915.8,286047000.7,N
1551242935.7,286047001.1,N
1551242955.5,286046999.3,N
1551242975.4,286046999.5,N
1551242995.2,286046999.6,N
1551243015.0,286046997.8,N
1551243015.9,286046997.8,N
1551243035.8,286046998.0,N
1551243055.6,286046997.9,N
1551243075.5,286046997.6,N
1551243095.3,286046998.4,N
1551243115.1,286046999.0,N
1551243135.9,286046998.3,N
1551243155.7,286046998.2,N
1551243175.5,286046999.5,N
1551243195.4,286046997.4,N
1551243215.2,286046997.8,N
1551243235.1,286046999.4,N
1551243236.0,286046999.4,N
1551243255.8,286046997.5,N
1551243275.6,286046997.4,N
1551243295.5,286046998.0,N
1551243315.3,286046997.9,N
1551243335.1,286046997.8,N
1551243355.9,286046995.2,Y
1551243375.7,286046996.8,P
1551243395.6,286046999.3,N
1551243415.4,286047000.6,N
1551243435.2,286047002.8,N
1551243455.1,286046999.8,N
1551243456.0,286046999.8,N
1551243475.8,286046999.9,N
1551243495.7,286047002.4,N
1551243515.5,286047002.7,N
1551243535.3,286047002.6,N
1551243555.2,286046998.1,N
1551243575.0,286047001.1,N
1551243575.9,286047001.1,N
1551243595.7,286047000.0,N
